Weather reports worldwide

Advertisment
Kleine Brogel, Belgium (6479): temperature & dewpoint: 21.04.2017 05:00:00 - 27.04.2017 05:00:00 (CEST)Kleine Brogel, Belgium (6479): wind speed & gusts: 21.04.2017 05:00:00 - 27.04.2017 05:00:00 (CEST)Kleine Brogel, Belgium (6479): wind direction: 21.04.2017 05:00:00 - 27.04.2017 05:00:00 (CEST)Kleine Brogel, Belgium (6479): reduced air pressure: 21.04.2017 05:00:00 - 27.04.2017 05:00:00 (CEST)Kleine Brogel, Belgium (6479): visibility: 21.04.2017 05:00:00 - 27.04.2017 05:00:00 (CEST)Kleine Brogel, Belgium (6479): precipitation: 21.04.2017 05:00:00 - 27.04.2017 05:00:00 (CEST)
Date & Time tt [°C] td [°C] ff [km/h] ff [kn] fx [km/h] fx [kn] dd ppp [hPa] vv [km] rr [mm]
27.04.2017 05:00:00 0,0 -0,4 4 2 - - - 1017,0 3,3 -
27.04.2017 04:00:00 0,6 0,0 4 2 7 4 - 1016,7 5 -
27.04.2017 03:00:00 1,6 0,8 4 2 11 6 - 1016,7 16 -
27.04.2017 02:00:00 1,3 0,5 4 2 - - - 1016,7 18 1,2
27.04.2017 01:00:00 1,5 0,7 4 2 7 4 - 1016,7 20 -
27.04.2017 00:00:00 2,5 1,5 4 2 7 4 - 1016,6 17 -
26.04.2017 23:00:00 3,3 1,8 4 2 - - - 1016,2 17 -
26.04.2017 22:00:00 4,5 2,6 4 2 18 10 - 1015,7 20 -
26.04.2017 21:00:00 6,1 1,2 7 4 22 12 NNW 1015,2 20 -
26.04.2017 20:00:00 7,1 2,9 11 6 - - W 1014,5 20 -
26.04.2017 19:00:00 8,1 3,3 4 2 14 8 - 1014,1 20 -
26.04.2017 18:00:00 5,6 2,3 11 6 25 14 SW 1014,3 10 -
26.04.2017 17:00:00 6,6 1,5 11 6 - - W 1014,2 7 -
26.04.2017 16:00:00 10,1 -0,1 11 6 25 14 WNW 1013,5 20 -
26.04.2017 15:00:00 12,3 -4,1 13 7 22 12 W 1013,1 10 -
26.04.2017 14:00:00 11,6 -3,1 7 4 - - N 1013,2 20 -
26.04.2017 13:00:00 10,4 -3,9 8 4 18 10 ENE 1013,1 10 -
26.04.2017 12:00:00 8,7 -2,8 11 6 18 10 NW 1013,2 20 -
26.04.2017 11:00:00 9,0 -1,7 7 4 - - WNW 1013,0 20 -
26.04.2017 10:00:00 7,2 0,7 7 4 18 10 W 1012,8 20 -
26.04.2017 09:00:00 5,7 1,8 7 4 14 8 W 1012,7 20 -
26.04.2017 08:00:00 3,0 0,8 7 4 - - WSW 1012,5 20 -
26.04.2017 07:00:00 0,6 -0,7 7 4 11 6 SW 1012,0 15 -
26.04.2017 06:00:00 0,8 -0,8 11 6 11 6 SW 1011,7 15 -
26.04.2017 05:00:00 0,6 -1,3 11 6 - - SW 1011,8 10 -
26.04.2017 04:00:00 0,9 -1,6 4 2 7 4 - 1012,1 16 -
26.04.2017 03:00:00 0,9 -1,4 4 2 7 4 - 1011,7 15 -
26.04.2017 02:00:00 1,8 -0,7 4 2 - - - 1011,7 18 1,0
26.04.2017 01:00:00 0,6 -1,1 4 2 4 2 - 1011,7 20 -
26.04.2017 00:00:00 1,7 -1,1 4 2 4 2 - 1011,6 20 -
25.04.2017 23:00:00 2,7 -1,2 4 2 - - - 1011,8 20 -
25.04.2017 22:00:00 3,7 -1,0 4 2 18 10 - 1012,0 10 -
25.04.2017 21:00:00 6,2 -1,9 7 4 25 14 NNW 1011,7 20 -
25.04.2017 20:00:00 7,7 -5,3 11 6 - - NW 1011,3 20 -
25.04.2017 19:00:00 8,8 -4,3 14 8 32 18 WNW 1011,1 20 -
25.04.2017 18:00:00 9,2 -3,2 11 6 32 18 WNW 1010,8 10 -
25.04.2017 17:00:00 10,3 -2,6 14 8 - - WNW 1010,7 20 -
25.04.2017 16:00:00 8,7 -1,4 14 8 29 16 NW 1010,7 20 -
25.04.2017 15:00:00 6,2 2,1 11 6 36 19 NNW 1010,8 12 -
25.04.2017 14:00:00 7,5 1,9 11 6 - - WSW 1010,7 12 -
25.04.2017 13:00:00 8,0 1,3 18 10 47 25 WNW 1010,3 18 -
25.04.2017 12:00:00 4,4 1,2 22 12 47 25 WNW 1010,6 10 -
25.04.2017 11:00:00 7,2 -0,2 22 12 - - W 1009,7 18 -
25.04.2017 10:00:00 6,7 0,0 25 14 36 19 W 1009,5 18 -
25.04.2017 09:00:00 5,6 0,3 14 8 25 14 W 1009,2 18 -
25.04.2017 08:00:00 5,0 1,6 9 5 - - W 1008,7 10 -
25.04.2017 07:00:00 4,5 2,3 7 4 18 10 W 1008,2 18 -
25.04.2017 06:00:00 5,6 2,9 11 6 25 14 W 1007,8 18 -
25.04.2017 05:00:00 6,0 5,3 14 8 - - WSW 1007,3 10 -
25.04.2017 04:00:00 5,9 5,4 11 6 14 8 WSW 1007,5 7 -
25.04.2017 03:00:00 6,2 5,5 8 4 25 14 W 1007,7 10 -
25.04.2017 02:00:00 6,4 5,4 14 8 - - NNW 1008,2 10 1,5
25.04.2017 01:00:00 9,1 6,0 16 9 32 18 W 1008,0 10 -
25.04.2017 00:00:00 10,3 5,7 11 6 18 10 WSW 1008,1 18 -
24.04.2017 23:00:00 10,1 6,2 11 6 - - SW 1008,8 20 -
24.04.2017 22:00:00 10,3 6,1 11 6 25 14 W 1009,7 20 -
24.04.2017 21:00:00 11,5 5,4 7 4 18 10 W 1010,1 20 -
24.04.2017 20:00:00 12,3 5,6 11 6 - - W 1010,7 15 -
24.04.2017 19:00:00 13,6 1,9 18 10 29 16 WSW 1011,0 20 -
24.04.2017 18:00:00 14,3 1,0 18 10 32 18 WSW 1011,5 20 -
24.04.2017 17:00:00 15,6 1,4 14 8 - - W 1012,2 20 -
24.04.2017 16:00:00 15,5 1,5 25 14 32 18 WSW 1013,2 20 -
24.04.2017 15:00:00 14,9 1,6 22 12 36 19 WSW 1014,2 20 -
24.04.2017 14:00:00 14,6 1,8 22 12 - - WSW 1015,0 20 -
24.04.2017 13:00:00 14,5 1,7 24 13 36 19 WSW 1015,8 10 -
24.04.2017 12:00:00 13,0 1,3 22 12 36 19 W 1017,0 20 -
24.04.2017 11:00:00 11,4 -0,2 22 12 - - SW 1017,7 20 -
24.04.2017 10:00:00 8,2 -0,6 14 8 25 14 SW 1018,2 20 -
24.04.2017 09:00:00 6,5 -0,7 18 10 22 12 SW 1019,0 20 -
24.04.2017 08:00:00 4,3 -0,5 11 6 - - SSW 1019,3 10 -
24.04.2017 07:00:00 2,7 -0,2 4 2 11 6 - 1019,5 20 -
24.04.2017 06:00:00 2,2 -0,2 4 2 11 6 - 1020,0 12 -
24.04.2017 05:00:00 2,5 0,3 4 2 - - - 1020,7 17 -
24.04.2017 04:00:00 0,4 -0,8 2 1 7 4 - 1021,5 10 -
24.04.2017 03:00:00 0,5 -0,4 4 2 4 2 - 1022,3 4,4 -
24.04.2017 02:00:00 0,7 -0,7 2 1 - - - 1023,0 3,5 1,2
24.04.2017 01:00:00 1,3 0,2 4 2 4 2 - 1023,8 10 -
24.04.2017 00:00:00 1,6 -0,2 4 2 4 2 - 1024,4 20 -
23.04.2017 23:00:00 2,9 0,1 4 2 - - - 1024,9 20 -
23.04.2017 22:00:00 4,5 0,0 2 1 4 2 - 1025,2 10 -
23.04.2017 21:00:00 7,3 -0,2 4 2 11 6 - 1025,2 20 -
23.04.2017 20:00:00 9,7 0,4 4 2 - - - 1025,4 20 -
23.04.2017 19:00:00 9,6 1,5 7 4 14 8 NW 1025,7 20 -
23.04.2017 18:00:00 9,3 1,6 7 4 18 10 NNW 1025,9 20 -
23.04.2017 17:00:00 9,6 -0,2 7 4 - - NNW 1026,2 20 -
23.04.2017 16:00:00 10,8 -0,9 11 6 25 14 NW 1026,2 20 -
23.04.2017 15:00:00 10,3 -0,1 7 4 22 12 NW 1026,7 20 -
23.04.2017 14:00:00 10,3 -0,5 11 6 - - NNW 1027,2 20 -
23.04.2017 13:00:00 11,5 -1,0 7 4 18 10 NNW 1027,2 20 -
23.04.2017 12:00:00 9,2 -1,5 9 5 18 10 NNW 1027,7 10 -
23.04.2017 11:00:00 8,3 -1,8 11 6 - - NNW 1027,5 20 -
23.04.2017 10:00:00 8,4 0,0 11 6 22 12 NNW 1027,5 20 -
23.04.2017 09:00:00 7,2 2,1 11 6 18 10 NW 1027,4 16 -
23.04.2017 08:00:00 4,0 1,8 4 2 - - - 1027,2 20 -
23.04.2017 07:00:00 2,2 1,3 5 3 7 4 WSW 1027,0 10 -
23.04.2017 06:00:00 2,0 1,1 4 2 7 4 - 1026,7 19 -
23.04.2017 05:00:00 3,5 2,1 4 2 - - - 1026,7 20 -
23.04.2017 04:00:00 3,7 0,4 7 4 11 6 NW 1026,9 20 -
23.04.2017 03:00:00 2,4 0,0 4 2 11 6 - 1026,7 20 -
23.04.2017 02:00:00 1,8 0,0 4 2 - - - 1027,2 20 1,2
23.04.2017 01:00:00 3,5 0,2 4 2 11 6 - 1027,2 20 -
23.04.2017 00:00:00 5,1 0,8 4 2 14 8 - 1027,2 18 -
22.04.2017 23:00:00 6,3 0,7 7 4 - - NW 1027,0 20 -
22.04.2017 22:00:00 7,1 0,0 7 4 22 12 NNW 1026,9 20 -
22.04.2017 21:00:00 7,6 -0,7 11 6 25 14 NNW 1026,5 20 -
22.04.2017 20:00:00 8,8 -0,6 14 8 - - NNW 1026,4 20 -
22.04.2017 19:00:00 9,8 -1,0 16 9 36 19 NNW 1026,2 10 -
22.04.2017 18:00:00 10,1 -0,8 18 10 36 19 NNW 1026,0 20 -
22.04.2017 17:00:00 10,6 0,9 14 8 - - NNW 1026,2 20 -
22.04.2017 16:00:00 9,3 1,7 14 8 29 16 NNW 1026,5 20 -
22.04.2017 15:00:00 10,5 0,7 14 8 32 18 NNW 1026,7 20 -
22.04.2017 14:00:00 11,3 0,0 18 10 - - NNW 1026,9 20 -
22.04.2017 13:00:00 10,6 0,4 16 9 32 18 NNW 1027,4 10 -
22.04.2017 12:00:00 10,8 1,0 14 8 32 18 NNW 1027,4 20 -
22.04.2017 11:00:00 9,1 3,9 11 6 - - NNW 1027,5 20 -
22.04.2017 10:00:00 7,7 5,0 7 4 14 8 NW 1027,5 20 -
22.04.2017 09:00:00 6,1 4,7 4 2 11 6 - 1027,5 20 -
22.04.2017 08:00:00 5,5 4,8 4 2 - - - 1027,4 19 -
22.04.2017 07:00:00 5,5 4,7 9 5 32 18 N 1026,9 10 -
22.04.2017 06:00:00 7,4 5,8 22 12 36 19 NNE 1026,0 20 -
22.04.2017 05:00:00 9,6 6,9 11 6 - - W 1025,2 10 -
22.04.2017 04:00:00 9,8 6,7 7 4 18 10 W 1025,5 10 -
22.04.2017 03:00:00 10,1 6,9 13 7 18 10 WSW 1026,2 10 -
22.04.2017 02:00:00 10,1 6,9 11 6 - - WSW 1026,7 10 1,5
22.04.2017 01:00:00 10,3 6,8 11 6 14 8 WSW 1027,0 11 -
22.04.2017 00:00:00 10,5 6,8 7 4 14 8 SW 1027,5 12 -
21.04.2017 23:00:00 10,8 7,0 7 4 - - WSW 1028,0 12 -
21.04.2017 22:00:00 11,1 5,8 11 6 25 14 W 1028,2 20 -
21.04.2017 21:00:00 11,5 6,0 11 6 22 12 W 1028,2 20 -
21.04.2017 20:00:00 11,9 6,8 11 6 - - W 1028,2 20 -
21.04.2017 19:00:00 12,6 5,6 14 8 25 14 W 1028,5 20 -
21.04.2017 18:00:00 13,6 5,0 11 6 32 18 W 1028,4 20 -
21.04.2017 17:00:00 14,5 4,7 11 6 - - W 1028,4 20 -
21.04.2017 16:00:00 14,1 4,0 18 10 29 16 W 1029,0 20 -
21.04.2017 15:00:00 13,6 6,0 18 10 25 14 W 1029,7 9 -
21.04.2017 14:00:00 14,7 6,2 14 8 - - W 1030,0 10 -
21.04.2017 13:00:00 15,2 6,0 18 10 29 16 W 1030,5 11 -
21.04.2017 12:00:00 12,5 3,4 18 10 25 14 WSW 1031,2 10 -
21.04.2017 11:00:00 10,6 1,1 18 10 - - SW 1031,5 11 -
21.04.2017 10:00:00 9,3 0,1 18 10 25 14 SW 1031,7 12 -
21.04.2017 09:00:00 7,6 -0,9 11 6 14 8 SW 1031,7 10 -
21.04.2017 08:00:00 6,5 -1,2 11 6 - - SSW 1031,7 16 -
21.04.2017 07:00:00 6,1 -1,6 7 4 11 6 SW 1031,9 14 -
21.04.2017 06:00:00 6,0 -1,8 7 4 11 6 SW 1032,0 14 -
21.04.2017 05:00:00 5,9 -2,1 5 3 - - SSW 1032,4 10 -

tt = temperature
td = dewpoint
ff = wind speed
fx = gusts
dd = wind direction
ppp = reduced air pressure
vv = visibility
rr = precipitation

Next stations